Regional Weather Roundup
Issued by NWS

Home | Current Version | Previous Version | Text Only | Print | Product List | Glossary Off
Versions: 1 2 3 4 5 6 7 8 9 10 11 12 13 14 15 16 17 18 19 20 21 22 23 24 25 26 27 28 29 30 31 32 33 34 35 36 37 38 39 40 41 42 43 44 45 46 47 48 49 50

000
ASUS43 KOAX 251010
RWRNE

WEATHER ROUNDUP FOR NEBRASKA
NATIONAL WEATHER SERVICE OMAHA NE
500 AM CDT WED APR 25 2018

NOTES: SATELLITE DATA IS BEING USED TO AUGMENT CLOUD COVER ABOVE
       12000 FEET.
       "FAIR" INDICATES FEW OR NO CLOUDS BELOW 12,000 FEET WITH NO
       SIGNIFICANT WEATHER AND/OR OBSTRUCTIONS TO VISIBILITY.


NEZ001>004-019>022-054>056-251100-
NEBRASKA PANHANDLE

CITY           SKY/WX    TMP DP  RH WIND       PRES   REMARKS
SCOTTSBLUFF    CLEAR     28  26  92 CALM      30.37F
ALLIANCE       CLEAR     23  23 100 W8        30.35F WCI  14
CHADRON        CLEAR     23  21  92 SW7       30.36F WCI  15
GORDON         FAIR      29  25  85 W3        30.34F
KIMBALL        CLEAR     27  26  96 W5        30.36F WCI  21
SIDNEY         CLEAR     27  25  92 W7        30.37F WCI  19
$$

NEZ057>060-069>072-079>082-251100-
SOUTHWEST NEBRASKA

CITY           SKY/WX    TMP DP  RH WIND       PRES   REMARKS
NORTH PLATTE   CLOUDY    38  34  85 NW6       30.35S WCI  33
IMPERIAL       CLOUDY    36  31  82 NW10      30.36S WCI  28
LEXINGTON      CLOUDY    40  35  85 NW12      30.33F WCI  32
MCCOOK         CLOUDY    38  35  89 NW9       30.35S WCI  31
OGALLALA       MOCLDY    36  32  85 NW9       30.36S WCI  29
$$

NEZ005>010-023>029-035>040-094-251100-
NORTH CENTRAL NEBRASKA

CITY           SKY/WX    TMP DP  RH WIND       PRES   REMARKS
VALENTINE      PTCLDY    34  30  85 NW9       30.34F WCI  27
AINSWORTH      PTCLDY    35  33  93 NW5       30.33S WCI  31
BROKEN BOW     CLOUDY    40  34  79 NW12      30.31S WCI  33
O`NEILL        MOCLDY    38  37  94 NW8       30.32S WCI  33
ORD            LGT RAIN  40  38  93 NW7       30.30S
THEDFORD       CLOUDY    37  34  89 NW6       30.34F WCI  33
$$

NEZ041-046>049-061>064-073>077-083>087-251100-
SOUTH CENTRAL NEBRASKA

CITY           SKY/WX    TMP DP  RH WIND       PRES   REMARKS
GRAND ISLAND   CLOUDY    42  38  85 N17       30.30R
AURORA         DRIZZLE   41  40  95 N16       30.28S
HASTINGS       LGT RAIN  40  40 100 N15       30.29R WCI  32
HEBRON         RAIN      44  42  94 N12G20    30.25S
HOLDREGE       CLOUDY    38  38  97 N13G18    30.31S FOG     WCI  31
KEARNEY        LGT RAIN  40  37  89 N13       30.32R WCI  32
YORK           LGT RAIN  41  41 100 N17G24    30.26S
$$

NEZ011>018-030>034-042>045-251100-
NORTHEAST NEBRASKA

CITY           SKY/WX    TMP DP  RH WIND       PRES   REMARKS
NORFOLK        LGT RAIN  40  37  89 NW10      30.27F WCI  33
ALBION         CLOUDY    41  37  86 N7        30.30S
BLAIR          CLOUDY    45  41  87 NW12      30.22R
COLUMBUS       CLOUDY    42  37  82 N15       30.28S
FREMONT        CLOUDY    45  40  81 NW10G16   30.25R
TEKAMAH        LGT RAIN  43  39  86 N15       30.24R
WAYNE          CLOUDY    42  40  96 N9        30.27S
$$

NEZ050>053-065>068-078-088>093-251100-
SOUTHEAST NEBRASKA

CITY           SKY/WX    TMP DP  RH WIND       PRES   REMARKS
LINCOLN        LGT RAIN  44  42  93 N16G25    30.25S FOG
OMAHA EPPLEY   CLOUDY    46  43  89 NW10      30.22R
BEATRICE       LGT RAIN  46  45  96 N15       30.22S
FALLS CITY     LGT RAIN  49  44  83 N9        30.17S
NEBRASKA CITY  DRIZZLE   47  46  96 N12       30.19S
PLATTSMOUTH    LGT RAIN  46  43  89 N8        30.20S
$$

NEZ044-045-051>053-067-251100-
OMAHA AREA

CITY           SKY/WX    TMP DP  RH WIND       PRES   REMARKS
OMAHA EPPLEY   CLOUDY    46  43  89 NW10      30.22R
BLAIR          CLOUDY    45  41  87 NW12      30.22R
FREMONT        CLOUDY    45  40  81 NW10G16   30.25R
MILLARD        CLOUDY    47  43  84 N7        30.22S
OFFUTT AFB     CLOUDY    47  43  86 N7        30.20R
PLATTSMOUTH    LGT RAIN  46  43  89 N8        30.20S
WAHOO          CLOUDY    45  40  81 N13       30.24S
$$



USA.gov is the U.S. government's official web portal to all federal, state and local government web resources and services.